W8VMX Weather Reports


time (UTC)temp
C
wind
direction
speed
KPH
gust
KPH
rain 1hr
cm
rain 24hr
cm
rain mn
cm
humidity
%
barometer
mb
20260503185025 16 165 3.2 12.9 0.00 0.00 0.00 45 1017.4
20260503184542 16 184 4.8 17.7 0.00 0.00 0.00 44 1017.5
20260503184021 15 0 4.8 17.7 0.00 0.00 0.00 42 1017.6
20260503183524 15 173 1.6 12.9 0.00 0.00 0.00 45 1017.7
20260503183052 15 182 4.8 14.5 0.00 0.00 0.00 45 1017.8
20260503182523 15 177 6.4 14.5 0.00 0.00 0.00 45 1017.8
20260503182025 15 175 4.8 24.1 0.00 0.00 0.00 45 1017.8
20260503181538 15 171 3.2 24.1 0.00 0.00 0.00 42 1017.9
20260503181024 15 180 4.8 22.5 0.00 0.00 0.00 42 1018.0
20260503180524 16 198 3.2 16.1 0.00 0.00 0.00 44 1018.1
20260503180044 16 252 4.8 16.1 0.00 0.00 0.00 42 1018.1
20260503175523 16 188 4.8 14.5 0.00 0.00 0.00 44 1018.1
20260503175027 16 183 4.8 14.5 0.00 0.00 0.00 50 1018.3
20260503174538 15 226 4.8 14.5 0.00 0.00 0.00 43 1018.2
20260503174026 15 238 4.8 14.5 0.00 0.00 0.00 42 1018.3
20260503173526 16 138 4.8 17.7 0.00 0.00 0.00 44 1018.5
20260503173037 15 180 6.4 17.7 0.00 0.00 0.00 46 1018.5
20260503172522 15 280 4.8 17.7 0.00 0.00 0.00 44 1018.6
20260503172023 15 153 4.8 16.1 0.00 0.00 0.00 45 1018.7
20260503171536 15 197 4.8 14.5 0.00 0.00 0.00 44 1018.8
20260503171024 15 219 6.4 17.7 0.00 0.00 0.00 42 1019.1
20260503170524 15 167 3.2 17.7 0.00 0.00 0.00 50 1019.1
20260503150523 11 154 4.8 14.5 0.00 0.00 0.00 59 1020.6
20260503131027 7 0 3.2 9.7 0.00 0.00 0.00 71 1020.6
20260503130526 6 219 3.2 9.7 0.00 0.00 0.00 71 1020.7
20260503110523 0 0 0.0 0.0 0.00 0.00 0.00 95 1020.1
20260503081554 0 0 0.0 0.0 0.00 0.00 0.00 93 1019.4
20260503081023 0 0 0.0 0.0 0.00 0.00 0.00 94 1019.4
20260503080523 0 0 0.0 0.0 0.00 0.00 0.00 93 1019.4
20260503072524 0 0 0.0 0.0 0.00 0.00 0.00 93 1019.3
20260503072024 0 0 0.0 0.0 0.00 0.00 0.00 93 1019.4
20260503071537 0 0 0.0 0.0 0.00 0.00 0.00 93 1019.3
20260503071023 0 0 0.0 0.0 0.00 0.00 0.00 93 1019.3
20260503070523 0 0 0.0 0.0 0.00 0.00 0.00 93 1019.3
20260503055023 0 0 0.0 0.0 0.00 0.00 0.00 91 1019.7
20260503054544 0 0 0.0 0.0 0.00 0.00 0.00 91 1019.7
20260503054026 1 0 0.0 0.0 0.00 0.00 0.00 91 1019.7
20260503053523 1 0 0.0 0.0 0.00 0.00 0.00 91 1019.8
20260503053038 1 0 0.0 0.0 0.00 0.00 0.00 91 1019.7
20260503052524 1 0 0.0 0.0 0.00 0.00 0.00 91 1019.7
20260503052023 1 0 0.0 0.0 0.00 0.00 0.00 91 1019.8
20260503051550 1 0 0.0 0.0 0.00 0.00 0.00 91 1019.6
20260503051023 1 0 0.0 0.0 0.00 0.00 0.00 91 1019.7
20260503050527 1 0 0.0 0.0 0.00 0.00 0.00 91 1019.6
20260503050041 1 0 0.0 0.0 0.00 0.00 0.00 90 1019.6
20260503045523 1 0 0.0 0.0 0.00 0.00 0.00 90 1019.7
20260503045024 1 0 0.0 0.0 0.00 0.00 0.00 89 1019.7
20260503044537 1 0 0.0 0.0 0.00 0.00 0.00 89 1019.7
20260503044022 1 0 0.0 0.0 0.00 0.00 0.00 89 1019.7
20260503043523 1 0 0.0 0.0 0.00 0.00 0.00 88 1019.7
20260503043037 1 0 0.0 0.0 0.00 0.00 0.00 88 1019.5
20260503042525 1 0 0.0 0.0 0.00 0.00 0.00 88 1019.7
20260503042024 1 0 0.0 0.0 0.00 0.00 0.00 88 1019.7
20260503041542 1 0 0.0 0.0 0.00 0.00 0.00 88 1019.7
20260503041024 2 0 0.0 0.0 0.00 0.00 0.00 87 1019.7
20260503040523 2 0 0.0 0.0 0.00 0.00 0.00 87 1019.7
20260503040044 2 0 0.0 0.0 0.00 0.00 0.00 88 1019.7
20260503035523 2 0 0.0 0.0 0.00 0.00 0.00 87 1019.7
20260503035023 2 0 0.0 0.0 0.00 0.00 0.00 86 1019.7
20260503034541 2 0 0.0 0.0 0.00 0.00 0.00 86 1019.7
20260503034023 2 0 0.0 0.0 0.00 0.00 0.00 85 1019.7
20260503033525 2 0 0.0 0.0 0.00 0.00 0.00 85 1019.7
20260503033053 2 0 0.0 0.0 0.00 0.00 0.00 85 1019.8
20260503032523 2 0 0.0 0.0 0.00 0.00 0.00 84 1019.9
20260503032027 2 0 0.0 0.0 0.00 0.00 0.00 84 1019.7
20260503031550 2 0 0.0 0.0 0.00 0.00 0.00 83 1019.7
20260503031027 3 0 0.0 0.0 0.00 0.00 0.00 83 1019.8
20260503030524 3 0 0.0 0.0 0.00 0.00 0.00 82 1019.7
20260503030037 3 0 0.0 0.0 0.00 0.00 0.00 82 1019.7
20260503025522 3 0 0.0 0.0 0.00 0.00 0.00 81 1019.7
20260503025023 3 0 0.0 0.0 0.00 0.00 0.00 80 1019.8
20260503024540 3 0 0.0 0.0 0.00 0.00 0.00 80 1019.8
20260503024023 3 0 0.0 0.0 0.00 0.00 0.00 79 1019.7
20260503023524 4 0 0.0 0.0 0.00 0.00 0.00 78 1019.8
20260503023036 4 0 0.0 0.0 0.00 0.00 0.00 78 1019.7
20260503022522 4 0 0.0 0.0 0.00 0.00 0.00 78 1019.7
20260503022025 5 0 0.0 0.0 0.00 0.00 0.00 76 1019.6
20260503021539 5 0 0.0 0.0 0.00 0.00 0.00 76 1019.6
20260503021025 5 0 0.0 0.0 0.00 0.00 0.00 75 1019.5
20260503020523 5 0 0.0 0.0 0.00 0.00 0.00 75 1019.4
20260503020041 5 0 0.0 0.0 0.00 0.00 0.00 72 1019.4
20260503015522 5 0 0.0 0.0 0.00 0.00 0.00 71 1019.3
20260503015022 5 0 0.0 0.0 0.00 0.00 0.00 70 1019.3
20260503014541 6 0 0.0 0.0 0.00 0.00 0.00 70 1019.3
20260503014023 6 0 0.0 0.0 0.00 0.00 0.00 69 1019.3
20260503013524 6 0 0.0 0.0 0.00 0.00 0.00 67 1019.3
20260503013038 6 0 0.0 0.0 0.00 0.00 0.00 67 1019.1
20260503012523 6 0 0.0 0.0 0.00 0.00 0.00 64 1019.1
20260503012024 6 0 0.0 0.0 0.00 0.00 0.00 63 1018.9
20260503011542 7 0 0.0 0.0 0.00 0.00 0.00 62 1019.0
20260503011024 7 0 0.0 0.0 0.00 0.00 0.00 61 1018.9
20260503010524 7 0 0.0 0.0 0.00 0.00 0.00 60 1018.8
20260503010038 7 0 0.0 0.0 0.00 0.00 0.00 60 1018.8
20260503005524 7 0 0.0 1.6 0.00 0.00 0.00 59 1018.7
20260503005024 8 0 0.0 1.6 0.00 0.00 0.00 57 1018.7
20260503004604 8 0 0.0 3.2 0.00 0.00 0.00 56 1018.7
20260503004023 8 71 0.0 3.2 0.00 0.00 0.00 55 1018.6
20260503003523 8 0 0.0 4.8 0.00 0.00 0.00 55 1018.5
20260503003038 8 0 0.0 6.4 0.00 0.00 0.00 56 1018.5
20260503002523 8 50 0.0 6.4 0.00 0.00 0.00 54 1018.5
20260503002027 8 0 0.0 6.4 0.00 0.00 0.00 53 1018.3
20260503001542 9 0 0.0 8.0 0.00 0.00 0.00 53 1018.3
20260503001024 9 0 0.0 8.0 0.00 0.00 0.00 52 1018.2
20260503000526 9 146 0.0 6.4 0.00 0.00 0.00 53 1018.1
20260503000039 9 78 0.0 9.7 0.00 0.00 0.00 51 1018.1
20260502235523 10 0 0.0 9.7 0.00 0.00 0.00 51 1018.1
20260502235026 10 200 0.0 6.4 0.00 0.00 0.00 50 1018.0
20260502234538 10 27 0.0 8.0 0.00 0.00 0.00 49 1018.1
20260502234024 10 30 0.0 9.7 0.00 0.00 0.00 48 1018.0
20260502233523 10 348 1.6 9.7 0.00 0.00 0.00 48 1018.0
20260502233051 10 0 0.0 9.7 0.00 0.00 0.00 49 1018.0
20260502232522 10 65 1.6 8.0 0.00 0.00 0.00 48 1018.0
20260502232023 10 0 0.0 8.0 0.00 0.00 0.00 50 1017.9
20260502231553 10 98 0.0 8.0 0.00 0.00 0.00 49 1017.9
20260502231023 10 237 0.0 8.0 0.00 0.00 0.00 49 1018.0
20260502230524 10 0 0.0 8.0 0.00 0.00 0.00 48 1017.9
20260502230042 10 15 1.6 6.4 0.00 0.00 0.00 48 1017.9
20260502225523 11 0 0.0 6.4 0.00 0.00 0.00 47 1017.8
20260502225023 11 9 0.0 8.0 0.00 0.00 0.00 46 1017.8
20260502224538 11 65 1.6 8.0 0.00 0.00 0.00 46 1017.9
20260502224025 11 0 1.6 9.7 0.00 0.00 0.00 46 1017.8
20260502223524 11 215 1.6 12.9 0.00 0.00 0.00 47 1017.8
20260502223044 11 265 3.2 16.1 0.00 0.00 0.00 46 1017.8
20260502222525 11 0 4.8 16.1 0.00 0.00 0.00 47 1017.8
20260502222024 11 159 1.6 9.7 0.00 0.00 0.00 46 1017.7
20260502221536 11 0 0.0 11.3 0.00 0.00 0.00 46 1017.7
20260502221023 11 355 3.2 11.3 0.00 0.00 0.00 47 1017.7
20260502220523 11 25 1.6 6.4 0.00 0.00 0.00 48 1017.6
20260502220042 11 0 1.6 6.4 0.00 0.00 0.00 47 1017.6
20260502215521 11 119 0.0 6.4 0.00 0.00 0.00 46 1017.6
20260502215022 11 0 0.0 9.7 0.00 0.00 0.00 45 1017.6
20260502214540 11 60 1.6 9.7 0.00 0.00 0.00 45 1017.6
20260502214022 11 0 1.6 14.5 0.00 0.00 0.00 46 1017.5
20260502213524 11 0 1.6 16.1 0.00 0.00 0.00 44 1017.5
20260502213049 12 21 3.2 16.1 0.00 0.00 0.00 44 1017.4
20260502212525 12 0 0.0 11.3 0.00 0.00 0.00 46 1017.5
20260502212024 12 237 3.2 11.3 0.00 0.00 0.00 44 1017.6
20260502211544 12 237 1.6 8.0 0.00 0.00 0.00 44 1017.4
20260502211027 11 0 1.6 9.7 0.00 0.00 0.00 44 1017.4
20260502210523 12 270 0.0 9.7 0.00 0.00 0.00 43 1017.4
20260502210039 12 336 1.6 16.1 0.00 0.00 0.00 43 1017.3
20260502205526 12 219 4.8 20.9 0.00 0.00 0.00 44 1017.3
20260502205024 12 270 3.2 20.9 0.00 0.00 0.00 43 1017.3
20260502204547 12 78 1.6 11.3 0.00 0.00 0.00 42 1017.2
20260502204023 12 249 3.2 11.3 0.00 0.00 0.00 43 1017.3
20260502203523 12 0 4.8 12.9 0.00 0.00 0.00 43 1017.3
20260502203036 12 0 3.2 12.9 0.00 0.00 0.00 46 1017.5
20260502202525 11 215 0.0 11.3 0.00 0.00 0.00 45 1017.4
20260502202025 12 175 1.6 11.3 0.00 0.00 0.00 44 1017.4
20260502201536 12 58 4.8 12.9 0.00 0.00 0.00 45 1017.6
20260502201025 12 106 1.6 12.9 0.00 0.00 0.00 47 1017.6
20260502200524 12 0 3.2 12.9 0.00 0.00 0.00 43 1017.7
20260502200039 12 267 3.2 12.9 0.00 0.00 0.00 44 1017.6
20260502195524 12 347 0.0 16.1 0.00 0.00 0.00 48 1017.7
20260502195023 12 0 1.6 16.1 0.00 0.00 0.00 43 1017.7
20260502194538 12 126 4.8 12.9 0.00 0.00 0.00 42 1017.7
20260502194023 12 0 1.6 9.7 0.00 0.00 0.00 46 1017.7
20260502193524 12 0 3.2 12.9 0.00 0.00 0.00 45 1017.6
20260502193039 12 329 4.8 12.9 0.00 0.00 0.00 43 1017.6
20260502192527 11 5 4.8 12.9 0.00 0.00 0.00 46 1017.7
20260502192025 11 234 1.6 11.3 0.00 0.00 0.00 46 1017.7
20260502191538 11 280 3.2 8.0 0.00 0.00 0.00 45 1017.8
20260502191029 11 67 1.6 8.0 0.00 0.00 0.00 45 1017.8
20260502190524 11 49 0.0 11.3 0.00 0.00 0.00 46 1018.0
20260502190038 11 34 3.2 11.3 0.00 0.00 0.00 43 1018.1
20260502185524 12 0 1.6 8.0 0.00 0.00 0.00 43 1017.9